Back to catalog

CENTAURI-9

AliveAmateur RadioSSO
NORAD 69924·PAYLOAD·🇯🇵 Japan

Launched Jul 7, 2026 from Vandenberg Space Force Base

Loading…

Next Passes (next 24 hours)

TLE

FreshSource: Space-Track

Epoch: Sep 14, 2026, 13:06 UTC

1 69924U 26156BH  26257.54624724  .00000934  00000-0  97088-4 0  9998
2 69924  97.7442 156.8720 0006843 287.4217  72.6253 14.92213529 10325

Track CENTAURI-9 in real time with AllMySat

Download on the App Store